Weather History for Sioux City, IA

Change the Weather History Date:

Friday, March 28, 2014

  Actual Average Record
Temperature  
Mean Temperature 29 °F 42 °F  
Max Temperature 37 °F 54 °F 83 °F (1986)
Min Temperature 20 °F 30 °F 9 °F (1969)
Degree Days  
Heating Degree Days 36 23  
Month to date heating degree days 926 817  
Since 1 July heating degree days 6530 6111  
Cooling Degree Days 0 0  
Month to date cooling degree days 0 0  
Year to date cooling degree days 0 0  
Moisture  
Dew Point 24 °F    
Average Humidity 81    
Maximum Humidity 92    
Minimum Humidity 70    
Precipitation  
Precipitation 0.00 in 0.09 in 1.68 in (1940)
Month to date precipitation 0.38 1.73  
Year to date precipitation 1.15 3.02  
Snow  
Snow 0.00 in 0.10 in 16.00 in (1890)
Month to date snowfall 4.7 6.0  
Since 1 July snowfall 18.5 32.5  
Snow Depth 0.00 in    
Sea Level Pressure  
Sea Level Pressure 30.12 in    
Wind  
Wind Speed 7 mph (NNW)    
Max Wind Speed 14 mph    
Max Gust Speed 19 mph    
Visibility 10 miles    
Events      
T = Trace of Precipitation, MM = Missing Value Source: NWS Daily Summary

Daily Weather History Graph

Daily Weather History Graph

Search for Another Location

Airport:

Trip Planner

Search our weather history database for the weather conditions in past years. The results will help you decide how hot, cold, wet, or windy it might be!

Date:

Astronomy

Mar. 28, 2014 Rise Set
Actual Time 7:14 AM CDT 7:46 PM CDT
Civil Twilight 6:46 AM CDT 8:15 PM CDT
Nautical Twilight 6:13 AM CDT 8:48 PM CDT
Astronomical Twilight 5:39 AM CDT 9:22 PM CDT
Moon 5:49 AM CDT (3/28) 5:42 PM CDT (3/28)
Length of Visible Light 13h 28m
Length of Day
12h 32m
Waning Crescent, 6% of the Moon is Illuminated
Mar 28
Waning Crescent
Mar 30
New
Apr 7
First Quarter
Apr 15
Full
Apr 22
Last Quarter

Hourly Weather History & Observations

Time (CDT) Temp. Windchill Dew Point Humidity Pressure Visibility Wind Dir Wind Speed Gust Speed Precip Events Conditions
12:52 AM 30.9 °F 19.8 °F 25.0 °F 79% 29.89 in 10.0 mi NNW 16.1 mph - N/A   Clear
1:52 AM 28.9 °F 21.1 °F 25.0 °F 85% 29.93 in 10.0 mi NNW 8.1 mph - N/A   Clear
2:52 AM 27.0 °F 18.0 °F 23.0 °F 85% 29.95 in 10.0 mi NW 9.2 mph - N/A   Clear
3:52 AM 26.1 °F 15.6 °F 21.9 °F 84% 29.99 in 10.0 mi NW 11.5 mph - N/A   Clear
4:52 AM 25.0 °F 13.1 °F 21.0 °F 85% 30.00 in 10.0 mi NNW 13.8 mph - N/A   Clear
5:52 AM 24.1 °F 14.4 °F 19.9 °F 84% 30.03 in 10.0 mi NW 9.2 mph - N/A   Clear
6:52 AM 21.0 °F 12.4 °F 18.0 °F 88% 30.07 in 10.0 mi West 6.9 mph - N/A   Clear
7:52 AM 23.0 °F 13.9 °F 19.0 °F 85% 30.06 in 10.0 mi NNW 8.1 mph - N/A   Clear
8:52 AM 25.0 °F 16.3 °F 19.9 °F 81% 30.11 in 10.0 mi NW 8.1 mph - N/A   Clear
9:52 AM 28.9 °F 22.8 °F 21.9 °F 75% 30.11 in 10.0 mi NE 5.8 mph - N/A   Clear
10:52 AM 30.9 °F 25.2 °F 24.1 °F 76% 30.11 in 10.0 mi North 5.8 mph - N/A   Clear
11:52 AM 35.1 °F 29.3 °F 27.0 °F 72% 30.13 in 10.0 mi NNE 6.9 mph - N/A   Mostly Cloudy
12:17 PM 35.1 °F 32.2 °F 27.0 °F 72% 30.10 in 10.0 mi North 3.5 mph - N/A   Overcast
12:52 PM 35.1 °F 31.0 °F 26.1 °F 70% 30.16 in 10.0 mi Variable 4.6 mph - N/A   Overcast
1:52 PM 35.1 °F 30.1 °F 27.0 °F 72% 30.16 in 10.0 mi WNW 5.8 mph - N/A   Overcast
2:52 PM 36.0 °F 32.1 °F 26.1 °F 67% 30.15 in 10.0 mi Variable 4.6 mph - N/A   Overcast
3:52 PM 36.0 °F - 27.0 °F 70% 30.17 in 10.0 mi Calm Calm - N/A   Overcast
4:52 PM 36.0 °F 32.1 °F 27.0 °F 70% 30.18 in 10.0 mi North 4.6 mph - N/A   Overcast
5:52 PM 36.0 °F 29.0 °F 27.0 °F 70% 30.19 in 10.0 mi North 9.2 mph - N/A   Overcast
6:52 PM 36.0 °F 29.0 °F 27.0 °F 70% 30.21 in 10.0 mi North 9.2 mph - N/A   Overcast
7:52 PM 35.1 °F 28.6 °F 27.0 °F 72% 30.23 in 10.0 mi North 8.1 mph - N/A   Overcast
8:52 PM 34.0 °F 27.2 °F 26.1 °F 73% 30.25 in 10.0 mi NNE 8.1 mph - N/A   Overcast
9:52 PM 33.1 °F 27.7 °F 26.1 °F 75% 30.27 in 10.0 mi NNE 5.8 mph - N/A   Overcast
10:52 PM 32.0 °F - 26.1 °F 79% 30.29 in 10.0 mi Calm Calm - N/A   Overcast
11:42 PM 28.9 °F 23.9 °F 25.0 °F 85% 30.27 in 10.0 mi NW 4.6 mph - N/A   Scattered Clouds
11:52 PM 27.0 °F 20.5 °F 24.1 °F 89% 30.31 in 10.0 mi WNW 5.8 mph - N/A   Scattered Clouds